Wind_Speed
49 49 49 48 47 47 47 47 47 47 47 46 46 46 46 47 47 47 46 47 47 47 46 46 46 46 46 46 46 47 47 48 48 48 48 48 49 49
50 50 50 50 49 49 49 49 50 50 49 48 48 48 49 48 48 48 48 47 47 47 47 47 47 47 47 47 48 48 49 50 50 50 49 50 50 51
51 51 51 51 51 51 51 51 51 52 52 50 50 50 50 50 49 50 49 49 48 48 49 48 48 49 49 49 49 50 50 51 51 51 51 50 51 52
51 52 52 53 54 53 53 53 53 53 53 52 51 51 51 51 51 50 50 50 49 49 49 49 49 50 50 50 50 50 51 51 51 51 52 52 52 53
53 53 53 54 54 55 55 54 54 55 54 54 53 53 52 53 53 52 51 51 51 50 50 51 51 51 51 51 51 51 51 51 51 52 53 53 53 54
54 54 54 54 55 55 55 55 55 55 55 55 54 53 53 53 53 53 53 52 52 51 50 50 49 50 50 51 51 51 51 52 52 53 53 54 54 54
55 55 55 55 55 55 56 56 56 56 56 56 55 54 54 54 54 54 54 53 53 52 51 51 50 50 51 51 52 52 52 53 53 54 55 55 55 56
56 56 56 57 56 56 56 56 57 57 56 56 56 55 55 55 55 55 54 54 53 53 53 52 52 52 52 52 53 53 54 54 54 55 55 56 56 56
57 57 58 57 57 57 57 57 57 56 57 57 57 56 56 55 56 55 55 54 54 54 54 54 53 53 53 53 54 54 55 55 56 56 56 56 57 57
56 56 57 57 57 57 57 57 57 57 57 57 57 57 56 56 55 55 55 55 55 55 55 54 54 54 54 54 55 55 55 56 56 56 57 57 58 57
55 55 56 57 57 57 56 56 57 57 57 58 58 57 57 56 55 54 54 54 54 55 54 54 55 56 56 55 55 56 56 56 56 57 57 58 58 57
54 54 54 54 55 55 55 55 56 57 57 58 58 57 57 56 55 55 54 54 54 54 54 54 55 56 56 56 56 56 57 57 57 57 58 58 57 57
50 51 51 52 53 53 54 54 54 55 55 56 56 56 56 56 55 55 55 54 54 54 54 55 55 56 56 56 56 57 57 57 57 57 57 57 56 56
49 49 49 50 50 50 51 52 52 53 54 55 55 55 55 55 55 55 55 55 55 55 54 55 55 56 56 56 56 56 56 56 56 56 55 55 55 55
47 47 47 47 48 48 48 49 49 50 51 52 52 53 54 54 54 54 54 54 54 54 55 54 54 54 55 55 55 55 55 55 55 55 55 55 55 55
45 46 46 46 47 48 48 48 49 48 49 50 50 51 52 52 52 53 53 53 53 53 53 53 53 53 54 54 54 53 54 54 54 54 54 54 54 54
44 45 46 46 46 47 47 48 48 48 48 48 48 49 50 50 51 51 52 52 52 53 53 53 53 53 53 53 53 52 52 53 53 53 53 53 53 54
43 44 45 45 46 46 46 46 47 47 48 47 48 48 48 49 49 50 50 51 51 52 52 52 52 53 53 52 52 51 52 52 52 52 52 53 53 53
41 42 43 44 44 44 45 45 46 46 47 47 47 47 47 47 47 48 49 49 49 50 51 51 52 52 52 51 51 51 51 52 52 52 52 52 52 52
40 41 42 43 43 43 43 44 44 45 45 45 45 45 45 45 46 46 47 47 48 49 50 50 51 51 51 51 51 51 52 52 52 52 52 52 52 52
40 41 41 41 41 42 42 42 43 43 43 43 43 43 44 44 44 45 45 46 46 47 48 48 49 49 50 51 51 51 51 52 52 51 51 51 51 50
39 39 39 40 40 40 40 40 40 41 41 42 42 43 43 44 44 45 45 45 46 47 47 48 48 49 50 50 50 50 50 51 51 51 51 50 49 48
38 37 37 37 37 38 38 39 39 39 39 40 40 41 42 43 43 44 45 45 46 46 47 47 47 49 50 50 50 50 50 50 50 50 49 48 47 46
Wind_Direction
253 254 255 256 256 257 258 259 260 260 261 262 263 264 265 266 266 266 267 267 267 268 269 269 269 268 268 269 270 270 270 271 272 273 274 274 274 274
253 253 254 255 256 257 258 260 261 261 261 262 264 264 264 266 267 267 267 267 268 268 268 269 269 268 268 269 270 271 271 272 273 274 274 275 274 274
253 253 254 256 257 257 258 259 261 262 262 263 263 264 264 265 267 267 267 268 269 268 269 269 269 269 268 269 270 271 272 273 273 273 274 275 275 275
255 255 256 256 257 258 259 260 260 262 262 263 263 264 264 265 266 267 267 268 269 269 269 269 269 269 269 269 270 271 272 273 274 273 274 274 275 275
255 256 256 257 257 258 258 259 260 262 263 263 263 264 265 266 266 266 267 268 269 270 270 269 269 269 270 270 271 272 273 274 274 273 273 274 275 275
256 256 256 257 258 259 258 259 261 262 263 263 263 264 265 265 266 266 267 267 269 270 270 270 270 271 271 271 271 272 273 274 274 274 274 274 275 275
255 255 256 257 258 259 259 260 261 262 263 263 264 265 264 265 266 266 266 267 268 269 270 270 271 272 272 271 271 272 274 274 275 275 276 275 275 276
256 256 257 257 258 259 259 260 262 262 262 263 263 263 264 265 266 266 266 267 268 269 269 269 271 272 272 272 273 274 275 275 275 276 276 276 276 276
257 257 257 258 259 259 260 261 261 261 262 262 263 263 264 265 265 265 266 267 268 268 268 270 271 272 272 273 274 274 275 275 275 275 275 276 276 276
257 257 257 258 259 260 260 260 261 261 262 262 262 262 264 264 265 265 266 267 267 268 269 270 271 271 272 272 273 274 275 275 275 275 275 275 276 276
257 258 258 258 259 260 260 261 261 262 262 262 262 262 263 264 264 265 265 266 267 268 268 270 271 272 272 273 274 274 274 274 275 275 276 276 275 276
257 258 259 259 259 260 262 262 262 261 261 262 262 262 263 262 263 264 265 266 267 267 268 270 272 273 273 274 274 275 275 275 275 275 276 276 275 276
258 259 259 259 260 261 261 262 262 262 262 262 262 263 263 263 263 263 264 265 266 268 269 271 272 273 275 275 275 275 275 275 275 275 275 275 274 275
259 260 260 260 260 261 261 261 261 261 261 262 262 262 263 263 263 264 264 266 267 269 270 271 273 274 275 275 275 275 275 275 275 274 274 274 275 275
262 261 260 260 260 261 260 260 261 262 262 262 262 261 262 262 263 263 264 266 268 269 270 272 273 273 274 276 276 276 275 275 275 275 275 275 275 276
261 261 260 261 261 261 261 262 262 262 262 262 261 261 261 261 262 263 265 267 268 269 270 271 272 273 275 276 276 276 275 275 275 275 276 276 276 275
260 260 259 260 261 262 263 263 262 262 262 263 264 264 263 263 264 266 266 267 268 270 271 271 273 274 275 276 276 275 275 275 275 275 276 276 276 276
260 259 259 259 261 262 263 264 263 263 264 265 265 265 264 264 265 266 267 268 269 270 271 273 274 274 274 275 275 275 275 275 275 275 276 276 277 277
258 258 259 260 260 262 263 264 264 264 265 266 266 265 265 265 266 267 268 269 270 271 272 273 273 274 274 274 274 274 274 275 275 276 277 277 277 277
260 260 260 261 261 263 264 264 264 265 265 265 265 265 265 266 267 268 269 270 270 271 272 272 273 273 273 273 273 274 274 275 276 276 277 278 277 276
261 261 262 262 263 264 265 265 265 264 264 264 265 265 266 267 268 269 270 270 270 271 272 272 273 272 273 274 274 275 275 276 277 277 278 277 277 276
263 263 262 263 264 265 265 265 265 265 265 266 266 267 267 268 269 270 271 270 271 272 272 273 273 273 274 274 275 275 276 276 277 278 278 277 277 276
263 263 264 265 265 265 265 265 265 266 267 267 267 268 268 269 269 270 271 272 273 273 273 273 274 274 275 275 276 275 275 276 277 277 276 276 276 275
Height
5685 5687 5689 5691 5692 5694 5695 5697 5698 5700 5702 5703 5703 5703 5703 5703 5704 5705 5705 5705 5705 5705 5705 5705 5705 5705 5705 5704 5704 5703 5703 5702 5702 5702 5702 5701 5701 5700
5672 5674 5676 5678 5680 5682 5683 5684 5685 5687 5689 5691 5690 5690 5691 5691 5692 5692 5692 5692 5692 5693 5693 5693 5693 5692 5692 5692 5691 5691 5690 5689 5689 5689 5688 5688 5687 5686
5659 5662 5664 5665 5667 5669 5670 5671 5672 5673 5675 5677 5677 5677 5677 5678 5679 5679 5679 5680 5680 5680 5680 5680 5679 5679 5679 5678 5678 5677 5677 5676 5675 5675 5674 5674 5673 5672
5646 5648 5650 5652 5653 5655 5656 5657 5658 5659 5660 5662 5663 5664 5664 5665 5665 5666 5666 5666 5667 5667 5667 5666 5666 5665 5665 5664 5664 5663 5663 5662 5661 5660 5660 5660 5659 5657
5632 5634 5636 5638 5639 5640 5642 5643 5644 5645 5646 5647 5649 5650 5651 5651 5651 5652 5652 5653 5653 5653 5653 5653 5652 5651 5651 5651 5650 5649 5649 5648 5647 5646 5645 5645 5644 5643
5617 5619 5621 5623 5625 5626 5627 5628 5629 5630 5631 5632 5634 5635 5636 5637 5637 5638 5638 5639 5639 5639 5639 5639 5638 5638 5637 5637 5636 5635 5634 5633 5632 5631 5631 5630 5629 5628
5602 5604 5606 5608 5609 5610 5612 5613 5614 5615 5616 5618 5619 5620 5621 5622 5623 5623 5623 5624 5624 5624 5625 5625 5624 5624 5623 5622 5621 5621 5620 5619 5618 5617 5616 5615 5614 5613
5587 5589 5591 5592 5594 5595 5596 5598 5599 5600 5602 5603 5604 5605 5606 5607 5607 5608 5608 5609 5610 5611 5610 5610 5610 5609 5608 5608 5607 5606 5605 5604 5603 5601 5600 5599 5598 5597
5571 5573 5575 5577 5578 5579 5580 5582 5583 5585 5587 5588 5589 5590 5591 5592 5592 5593 5593 5594 5595 5596 5595 5596 5595 5595 5594 5593 5592 5591 5590 5589 5587 5586 5585 5583 5582 5581
5555 5557 5559 5560 5562 5563 5565 5566 5568 5569 5571 5572 5574 5575 5575 5576 5577 5578 5578 5579 5580 5579 5579 5580 5580 5579 5579 5577 5576 5575 5574 5573 5572 5570 5569 5567 5566 5565
5539 5541 5542 5544 5546 5548 5549 5551 5552 5553 5554 5556 5557 5558 5559 5560 5561 5562 5563 5564 5565 5565 5564 5564 5564 5564 5563 5562 5561 5559 5558 5557 5555 5554 5553 5551 5550 5548
5524 5526 5527 5529 5530 5531 5533 5534 5536 5538 5539 5540 5541 5542 5544 5545 5546 5547 5548 5549 5549 5550 5549 5549 5548 5548 5548 5547 5545 5543 5542 5540 5539 5538 5536 5535 5533 5532
5509 5511 5512 5513 5514 5516 5517 5519 5520 5521 5522 5524 5525 5526 5528 5529 5531 5532 5533 5534 5534 5535 5535 5534 5533 5532 5531 5531 5529 5527 5525 5524 5523 5522 5520 5518 5517 5516
5495 5497 5498 5499 5500 5501 5502 5504 5505 5505 5507 5508 5510 5511 5513 5514 5516 5517 5517 5518 5519 5519 5518 5518 5517 5516 5515 5514 5513 5512 5510 5508 5507 5506 5504 5503 5502 5500
5481 5483 5484 5485 5486 5487 5488 5489 5490 5491 5492 5493 5495 5496 5498 5499 5500 5501 5502 5502 5503 5503 5502 5502 5501 5500 5499 5498 5497 5495 5494 5492 5491 5490 5489 5488 5486 5485
5468 5469 5470 5471 5472 5474 5475 5475 5476 5477 5477 5479 5480 5481 5482 5483 5484 5485 5486 5487 5487 5487 5486 5486 5485 5484 5483 5482 5481 5479 5478 5477 5476 5474 5473 5472 5470 5469
5455 5456 5457 5458 5459 5460 5461 5462 5462 5463 5464 5465 5466 5467 5468 5468 5469 5470 5471 5471 5471 5471 5471 5471 5470 5469 5468 5467 5465 5464 5462 5461 5460 5459 5457 5456 5455 5453
5442 5443 5444 5445 5446 5447 5448 5448 5449 5450 5450 5451 5452 5452 5453 5454 5455 5455 5455 5455 5456 5456 5456 5455 5454 5454 5453 5451 5450 5448 5447 5446 5445 5443 5441 5440 5439 5437
5429 5431 5432 5433 5434 5434 5435 5435 5436 5436 5437 5438 5438 5439 5439 5439 5440 5440 5440 5440 5441 5441 5441 5440 5439 5438 5438 5437 5435 5433 5432 5431 5429 5428 5426 5425 5423 5421
5417 5418 5419 5420 5421 5422 5422 5422 5423 5423 5424 5424 5425 5425 5426 5426 5426 5426 5426 5426 5426 5426 5425 5425 5424 5423 5423 5422 5421 5419 5416 5415 5414 5413 5411 5409 5407 5405
5406 5406 5407 5408 5408 5409 5409 5410 5410 5410 5411 5411 5412 5412 5413 5413 5413 5412 5412 5412 5412 5411 5411 5411 5409 5409 5407 5407 5406 5405 5402 5400 5398 5397 5395 5394 5392 5391
5394 5394 5395 5396 5396 5397 5397 5397 5398 5398 5398 5399 5399 5399 5399 5399 5399 5399 5398 5398 5398 5397 5397 5396 5395 5393 5392 5392 5390 5389 5387 5385 5383 5382 5380 5378 5376 5375
5382 5383 5383 5384 5384 5385 5385 5385 5386 5386 5386 5386 5386 5386 5386 5386 5386 5385 5385 5384 5384 5383 5382 5381 5380 5379 5377 5376 5375 5373 5372 5370 5368 5367 5365 5363 5362 5361